Time,TemperatureF,DewpointF,PressureIn,WindDirection,WindDirectionDegrees,WindSpeedMPH,WindSpeedGustMPH,Humidity,HourlyPrecipIn,Conditions,Clouds,dailyrainin,SolarRadiationWatts/m^2,SoftwareType,DateUTC
2013-05-03 00:03:00,43.0,42.0,-100.00,NNW,338,1.0,2.0,98,0.00,,,0.00,0.000000,,2013-05-03 04:03:00,
2013-05-03 00:32:00,42.0,42.0,-100.00,NNW,346,0.0,2.0,99,0.00,,,0.00,0.000000,,2013-05-03 04:32:00,
2013-05-03 00:43:00,42.0,42.0,-100.00,NNW,346,0.0,2.0,99,0.00,,,0.00,0.000000,,2013-05-03 04:43:00,
2013-05-03 00:53:00,42.0,42.0,-100.00,NNW,346,0.0,2.0,99,0.00,,,0.00,0.000000,,2013-05-03 04:53:00,
2013-05-03 01:03:00,42.0,42.0,-100.00,NNW,346,0.0,2.0,99,0.00,,,0.00,0.000000,,2013-05-03 05:03:00,
2013-05-03 01:32:00,41.0,41.0,-100.00,NNE,13,2.0,3.0,99,0.00,,,0.00,0.000000,,2013-05-03 05:32:00,
2013-05-03 01:42:00,41.0,41.0,-100.00,NNE,13,2.0,3.0,99,0.00,,,0.00,0.000000,,2013-05-03 05:42:00,
2013-05-03 01:52:00,41.0,41.0,-100.00,NNE,13,2.0,3.0,99,0.00,,,0.00,0.000000,,2013-05-03 05:52:00,
2013-05-03 02:02:00,41.0,41.0,-100.00,NNE,13,2.0,3.0,99,0.00,,,0.00,0.000000,,2013-05-03 06:02:00,
2013-05-03 02:32:00,40.0,40.0,-100.00,ENE,62,1.0,3.0,99,0.00,,,-99.99,0.000000,,2013-05-03 06:32:00,
2013-05-03 02:42:00,40.0,40.0,-100.00,ENE,62,1.0,3.0,99,0.00,,,-99.99,0.000000,,2013-05-03 06:42:00,
2013-05-03 02:52:00,40.0,40.0,-100.00,ENE,62,1.0,3.0,99,0.00,,,-99.99,0.000000,,2013-05-03 06:52:00,
2013-05-03 03:02:00,40.0,40.0,-100.00,ENE,62,1.0,3.0,99,0.00,,,-99.99,0.000000,,2013-05-03 07:02:00,
2013-05-03 03:32:00,40.0,40.0,-100.00,NE,46,1.0,3.0,100,0.00,,,-99.99,0.000000,,2013-05-03 07:32:00,
2013-05-03 03:42:00,40.0,40.0,-100.00,NE,46,1.0,3.0,100,0.00,,,-99.99,0.000000,,2013-05-03 07:42:00,
2013-05-03 03:52:00,40.0,40.0,-100.00,NE,46,1.0,3.0,100,0.00,,,-99.99,0.000000,,2013-05-03 07:52:00,
2013-05-03 04:02:00,40.0,40.0,-100.00,NE,46,1.0,3.0,100,0.00,,,-99.99,0.000000,,2013-05-03 08:02:00,
2013-05-03 04:32:00,39.0,39.0,-100.00,North,2,0.0,3.0,100,0.00,,,0.00,0.000000,,2013-05-03 08:32:00,
2013-05-03 04:42:00,39.0,39.0,-100.00,North,2,0.0,3.0,100,0.00,,,0.00,0.000000,,2013-05-03 08:42:00,
2013-05-03 04:53:00,39.0,39.0,-100.00,North,2,0.0,3.0,100,0.00,,,0.00,0.000000,,2013-05-03 08:53:00,
2013-05-03 05:01:00,39.0,39.0,-100.00,North,2,0.0,3.0,100,0.00,,,0.00,0.000000,,2013-05-03 09:01:00,
2013-05-03 05:33:00,40.0,40.0,-100.00,ENE,76,1.0,3.0,100,0.00,,,0.00,0.000000,,2013-05-03 09:33:00,
2013-05-03 05:42:00,40.0,40.0,-100.00,ENE,76,1.0,3.0,100,0.00,,,0.00,0.000000,,2013-05-03 09:42:00,
2013-05-03 05:53:00,40.0,40.0,-100.00,ENE,76,1.0,3.0,100,0.00,,,0.00,0.000000,,2013-05-03 09:53:00,
2013-05-03 06:03:00,40.0,40.0,-100.00,ENE,76,1.0,3.0,100,0.00,,,0.00,0.000000,,2013-05-03 10:03:00,
2013-05-03 06:32:00,47.0,45.0,-100.00,East,81,2.0,7.0,92,0.00,,,0.00,1.000000,,2013-05-03 10:32:00,
2013-05-03 06:42:00,47.0,45.0,-100.00,East,81,2.0,7.0,92,0.00,,,0.00,1.000000,,2013-05-03 10:42:00,
2013-05-03 06:52:00,47.0,45.0,-100.00,East,81,2.0,7.0,92,0.00,,,0.00,1.000000,,2013-05-03 10:52:00,
2013-05-03 07:02:00,47.0,45.0,-100.00,East,81,2.0,7.0,92,0.00,,,0.00,1.000000,,2013-05-03 11:02:00,
2013-05-03 07:32:00,49.0,46.0,-100.00,ENE,77,3.0,7.0,90,0.00,,,0.00,25.000000,,2013-05-03 11:32:00,
2013-05-03 07:42:00,49.0,46.0,-100.00,ENE,77,3.0,7.0,90,0.00,,,0.00,25.000000,,2013-05-03 11:42:00,
2013-05-03 07:52:00,49.0,46.0,-100.00,ENE,77,3.0,7.0,90,0.00,,,0.00,25.000000,,2013-05-03 11:52:00,
2013-05-03 08:02:00,49.0,46.0,-100.00,ENE,77,3.0,7.0,90,0.00,,,0.00,25.000000,,2013-05-03 12:02:00,
2013-05-03 08:32:00,55.0,44.0,-100.00,East,86,8.0,15.0,67,0.00,,,-99.99,200.000000,,2013-05-03 12:32:00,
2013-05-03 08:42:00,55.0,44.0,-100.00,East,86,8.0,15.0,67,0.00,,,-99.99,200.000000,,2013-05-03 12:42:00,
2013-05-03 08:52:00,55.0,44.0,-100.00,East,86,8.0,15.0,67,0.00,,,-99.99,200.000000,,2013-05-03 12:52:00,
2013-05-03 09:01:00,55.0,44.0,-100.00,East,86,8.0,15.0,67,0.00,,,-99.99,200.000000,,2013-05-03 13:01:00,
2013-05-03 09:32:00,55.0,42.0,-100.00,ESE,116,10.0,20.0,62,0.00,,,0.00,445.000000,,2013-05-03 13:32:00,
2013-05-03 09:42:00,55.0,42.0,-100.00,ESE,116,10.0,20.0,62,0.00,,,0.00,445.000000,,2013-05-03 13:42:00,
2013-05-03 09:52:00,55.0,42.0,-100.00,ESE,116,10.0,20.0,62,0.00,,,0.00,445.000000,,2013-05-03 13:52:00,
2013-05-03 10:02:00,55.0,42.0,-100.00,ESE,116,10.0,20.0,62,0.00,,,0.00,445.000000,,2013-05-03 14:02:00,
2013-05-03 10:32:00,56.0,43.0,-100.00,East,99,8.0,20.0,62,0.00,,,0.00,635.000000,,2013-05-03 14:32:00,
2013-05-03 10:42:00,56.0,43.0,-100.00,East,99,8.0,20.0,62,0.00,,,0.00,635.000000,,2013-05-03 14:42:00,
2013-05-03 10:52:00,56.0,43.0,-100.00,East,99,8.0,20.0,62,0.00,,,0.00,635.000000,,2013-05-03 14:52:00,
2013-05-03 11:01:00,56.0,43.0,-100.00,East,99,8.0,20.0,62,0.00,,,0.00,635.000000,,2013-05-03 15:01:00,
2013-05-03 11:32:00,57.0,43.0,-100.00,ESE,104,8.0,18.0,59,0.00,,,0.00,788.000000,,2013-05-03 15:32:00,
2013-05-03 11:43:00,57.0,43.0,-100.00,ESE,104,8.0,18.0,59,0.00,,,0.00,788.000000,,2013-05-03 15:43:00,
2013-05-03 11:53:00,57.0,43.0,-100.00,ESE,104,8.0,18.0,59,0.00,,,0.00,788.000000,,2013-05-03 15:53:00,
2013-05-03 12:03:00,57.0,43.0,-100.00,ESE,104,8.0,18.0,59,0.00,,,0.00,788.000000,,2013-05-03 16:03:00,
2013-05-03 12:33:00,57.0,39.0,-100.00,East,97,9.0,21.0,50,0.00,,,0.00,911.000000,,2013-05-03 16:33:00,
2013-05-03 12:42:00,57.0,39.0,-100.00,East,97,9.0,21.0,50,0.00,,,0.00,911.000000,,2013-05-03 16:42:00,
2013-05-03 12:52:00,57.0,39.0,-100.00,East,97,9.0,21.0,50,0.00,,,0.00,911.000000,,2013-05-03 16:52:00,
2013-05-03 13:02:00,57.0,39.0,-100.00,East,97,9.0,21.0,50,0.00,,,0.00,911.000000,,2013-05-03 17:02:00,
2013-05-03 13:32:00,58.0,41.0,-100.00,SE,131,9.0,21.0,54,0.00,,,0.00,1010.000000,,2013-05-03 17:32:00,
2013-05-03 13:42:00,58.0,41.0,-100.00,SE,131,9.0,21.0,54,0.00,,,0.00,1010.000000,,2013-05-03 17:42:00,
2013-05-03 13:52:00,58.0,41.0,-100.00,SE,131,9.0,21.0,54,0.00,,,0.00,1010.000000,,2013-05-03 17:52:00,
2013-05-03 14:01:00,58.0,41.0,-100.00,SE,131,9.0,21.0,54,0.00,,,0.00,1010.000000,,2013-05-03 18:01:00,
2013-05-03 14:32:00,54.0,40.0,-100.00,East,92,8.0,20.0,60,0.00,,,0.00,797.000000,,2013-05-03 18:32:00,
2013-05-03 14:42:00,54.0,40.0,-100.00,East,92,8.0,20.0,60,0.00,,,0.00,797.000000,,2013-05-03 18:42:00,
2013-05-03 14:52:00,54.0,40.0,-100.00,East,92,8.0,20.0,60,0.00,,,0.00,797.000000,,2013-05-03 18:52:00,
2013-05-03 15:01:00,54.0,40.0,-100.00,East,92,8.0,20.0,60,0.00,,,0.00,797.000000,,2013-05-03 19:01:00,
2013-05-03 15:32:00,56.0,40.0,-100.00,ESE,121,7.0,19.0,55,0.00,,,0.00,731.000000,,2013-05-03 19:32:00,
2013-05-03 15:42:00,56.0,40.0,-100.00,ESE,121,7.0,19.0,55,0.00,,,0.00,731.000000,,2013-05-03 19:42:00,
2013-05-03 15:52:00,56.0,40.0,-100.00,ESE,121,7.0,19.0,55,0.00,,,0.00,731.000000,,2013-05-03 19:52:00,
2013-05-03 16:02:00,56.0,40.0,-100.00,ESE,121,7.0,19.0,55,0.00,,,0.00,731.000000,,2013-05-03 20:02:00,
2013-05-03 16:32:00,56.0,41.0,-100.00,East,94,8.0,19.0,56,0.00,,,0.00,769.000000,,2013-05-03 20:32:00,
2013-05-03 16:42:00,56.0,41.0,-100.00,East,94,8.0,19.0,56,0.00,,,0.00,769.000000,,2013-05-03 20:42:00,
2013-05-03 16:52:00,56.0,41.0,-100.00,East,94,8.0,19.0,56,0.00,,,0.00,769.000000,,2013-05-03 20:52:00,
2013-05-03 17:02:00,56.0,41.0,-100.00,East,94,8.0,19.0,56,0.00,,,0.00,769.000000,,2013-05-03 21:02:00,
2013-05-03 17:33:00,53.0,39.0,-100.00,East,80,7.0,15.0,60,0.00,,,0.00,382.000000,,2013-05-03 21:33:00,
2013-05-03 17:43:00,53.0,39.0,-100.00,East,80,7.0,15.0,60,0.00,,,0.00,382.000000,,2013-05-03 21:43:00,
2013-05-03 17:53:00,53.0,39.0,-100.00,East,80,7.0,15.0,60,0.00,,,0.00,382.000000,,2013-05-03 21:53:00,
2013-05-03 18:03:00,53.0,39.0,-100.00,East,80,7.0,15.0,60,0.00,,,0.00,382.000000,,2013-05-03 22:03:00,
2013-05-03 21:32:00,49.0,43.0,-100.00,East,100,4.0,9.0,79,-99.99,,,0.00,0.000000,,2013-05-04 01:32:00,
2013-05-03 21:42:00,49.0,43.0,-100.00,East,100,4.0,9.0,79,-99.99,,,0.00,0.000000,,2013-05-04 01:42:00,
2013-05-03 21:52:00,49.0,43.0,-100.00,East,100,4.0,9.0,79,-99.99,,,0.00,0.000000,,2013-05-04 01:52:00,
2013-05-03 22:02:00,49.0,43.0,-100.00,East,100,4.0,9.0,79,-99.99,,,0.00,0.000000,,2013-05-04 02:02:00,
2013-05-03 22:32:00,49.0,43.0,-100.00,ESE,103,5.0,11.0,80,0.00,,,0.00,0.000000,,2013-05-04 02:32:00,
2013-05-03 22:42:00,49.0,43.0,-100.00,ESE,103,5.0,11.0,80,0.00,,,0.00,0.000000,,2013-05-04 02:42:00,
2013-05-03 22:52:00,49.0,43.0,-100.00,ESE,103,5.0,11.0,80,0.00,,,0.00,0.000000,,2013-05-04 02:52:00,
2013-05-03 23:02:00,49.0,43.0,-100.00,ESE,103,5.0,11.0,80,0.00,,,0.00,0.000000,,2013-05-04 03:02:00,
2013-05-03 23:33:00,49.0,45.0,-100.00,ENE,68,5.0,10.0,85,0.00,,,0.00,0.000000,,2013-05-04 03:33:00,
2013-05-03 23:43:00,49.0,45.0,-100.00,ENE,68,5.0,10.0,85,0.00,,,0.00,0.000000,,2013-05-04 03:43:00,
2013-05-03 23:53:00,49.0,45.0,-100.00,ENE,68,5.0,10.0,85,0.00,,,0.00,0.000000,,2013-05-04 03:53:00,